Wind_Speed
13 14 17 18 19 17 20 23 24 24 25 25 25 22 18 18 17 16 16 18 18 20
14 20 23 22 22 22 23 26 25 25 24 21 20 18 17 15 15 15 17 17 19 21
19 22 24 22 21 23 25 25 25 22 20 22 20 17 15 16 16 18 18 20 21 22
20 20 21 20 23 25 23 24 25 22 24 26 24 17 17 19 16 18 19 18 19 18
23 20 21 21 23 22 22 22 24 23 27 25 22 19 19 16 18 17 17 19 21 25
20 24 23 23 22 23 22 22 23 24 30 29 19 16 17 15 17 18 19 23 28 31
26 22 20 24 28 29 29 26 26 29 31 29 16 15 12 16 17 20 24 29 30 28
20 19 25 28 31 30 25 25 27 29 29 25 11 11 15 15 20 25 29 29 27 27
22 26 25 28 31 26 21 21 20 16 15 9 12 12 12 18 26 29 29 29 29 29
25 24 25 31 26 26 19 13 15 11 10 11 11 11 16 24 27 26 27 28 29 30
24 25 27 27 25 23 15 14 13 11 12 11 12 17 22 24 23 24 25 26 26 26
25 27 27 27 23 18 20 15 12 13 10 12 15 21 21 22 22 23 25 24 23 21
24 24 28 26 24 22 18 16 13 10 10 14 19 19 19 19 22 25 26 25 22 19
22 27 26 24 21 16 13 13 12 8 13 18 18 17 17 18 21 24 24 25 24 20
Wind_Direction
333 339 343 341 336 329 333 334 332 332 331 326 319 314 309 305 303 304 306 305 301 301
337 340 339 338 336 333 330 328 326 323 315 311 307 302 299 300 308 302 309 308 305 299
336 337 336 335 328 325 328 324 315 303 306 317 307 293 292 301 305 305 305 302 299 299
331 330 326 320 321 321 315 315 305 301 311 311 302 293 300 301 298 302 306 304 300 297
315 315 318 308 310 316 317 314 303 296 304 306 292 289 296 294 306 313 309 303 302 305
325 324 324 321 328 330 321 318 307 288 297 301 273 289 283 306 310 311 307 307 309 307
332 331 326 326 327 326 322 310 300 292 298 296 282 290 291 302 297 304 308 308 307 306
329 326 327 329 330 327 319 310 305 303 306 281 259 261 300 283 301 306 309 309 307 306
324 327 328 331 331 324 312 306 307 313 328 303 295 301 284 300 308 311 313 311 311 308
326 324 329 330 327 325 312 310 315 320 325 309 301 295 304 308 310 313 313 315 314 311
323 322 325 330 328 331 317 318 319 308 310 303 299 305 308 312 315 316 319 322 320 317
316 316 321 326 324 314 312 305 307 307 295 297 306 309 315 316 318 324 329 329 331 328
311 311 319 318 316 312 302 292 288 290 295 303 307 315 318 320 327 330 331 337 335 328
310 307 308 315 316 308 303 298 291 298 300 306 313 315 317 321 327 330 333 337 335 331
Height
1550 1548 1545 1542 1539 1536 1534 1531 1528 1526 1523 1521 1518 1515 1512 1509 1507 1506 1505 1503 1501 1499
1546 1543 1540 1537 1534 1532 1530 1528 1525 1522 1519 1516 1513 1511 1509 1506 1504 1504 1501 1499 1498 1495
1542 1539 1536 1534 1532 1528 1525 1522 1519 1516 1514 1511 1508 1506 1504 1502 1500 1499 1497 1494 1493 1490
1539 1536 1533 1529 1526 1523 1520 1516 1514 1511 1508 1505 1503 1501 1501 1499 1497 1495 1493 1490 1487 1486
1535 1531 1528 1525 1522 1518 1515 1512 1509 1506 1503 1500 1498 1497 1496 1495 1493 1490 1487 1485 1483 1480
1531 1528 1524 1520 1517 1513 1510 1507 1504 1500 1497 1494 1492 1491 1491 1490 1488 1485 1483 1480 1477 1473
1525 1522 1519 1516 1512 1509 1505 1501 1498 1495 1491 1488 1486 1486 1487 1486 1483 1481 1478 1475 1471 1467
1521 1518 1514 1511 1507 1502 1498 1495 1492 1489 1486 1482 1480 1482 1483 1481 1479 1476 1473 1469 1465 1461
1517 1513 1509 1505 1500 1496 1492 1489 1486 1483 1481 1480 1480 1479 1479 1477 1474 1471 1466 1462 1458 1454
1512 1508 1504 1500 1496 1491 1486 1484 1482 1480 1479 1478 1477 1477 1475 1473 1469 1465 1461 1456 1451 1446
1507 1504 1500 1496 1491 1487 1483 1480 1479 1478 1477 1475 1475 1474 1471 1468 1464 1461 1456 1451 1446 1440
1502 1498 1495 1491 1488 1484 1480 1478 1476 1475 1474 1473 1472 1470 1467 1463 1460 1456 1451 1446 1441 1436
1497 1493 1490 1486 1483 1479 1476 1474 1473 1472 1472 1470 1469 1466 1463 1459 1455 1451 1446 1442 1438 1434
1492 1489 1485 1481 1478 1475 1473 1472 1470 1470 1469 1467 1465 1462 1459 1456 1452 1447 1442 1438 1433 1430